[TLELIST] Archives

 

Current TLEs <05 JAN 2006>

January 5th 2006 PDT

** Hope everyone had a safe New Year's ** HST 1 20580U 90037B 06005.41492946 .00000693 00000-0 41464-4 0 5070 2 20580 28.4688 30.8964 0003792 254.6735 105.3433 14.99941009660632 ISS 1 25544U 98067A 06005.35493174 .00015754 00000-0 11314-3 0 937 2 25544 51.6448 304.6612 0010844 118.7967 333.4455 15.73783581407509 CHANDRA 1 25867U 99040B 06003.75000000 .00000000 00000-0 00000-0 0 8743 2 25867 58.6395 99.9827 5679859 294.4255 350.5086 0.3 ...Continue Reading

Current TLEs <31 DEC 2005>

December 31st 2005 PDT

HST 1 20580U 90037B 05364.55954507 .00000803 00000-0 50144-4 0 5032 2 20580 28.4681 69.0545 0003890 193.7569 166.2938 14.99934001659752 ISS 1 25544U 98067A 05365.84525861 .00023212 00000-0 16548-3 0 648 2 25544 51.6448 327.8060 0010881 102.1796 343.8913 15.73635868406799 CHANDRA 1 25867U 99040B 05363.50000000 .00000000 00000-0 00000+0 0 8721 2 25867 58.6282 99.9791 5671352 294.7120 355.6575 0.37785471 1211 FLOATING POTENTIAL PROBE 1 28 ...Continue Reading

Current TLEs <28 DEC 2005>

December 28th 2005 PDT

HST 1 20580U 90037B 05360.63375354 .00000538 00000-0 29248-4 0 5030 2 20580 28.4670 94.6451 0004030 156.7659 203.3111 14.99928292659162 ISS 1 25544U 98067A 05362.48988194 .00017866 00000-0 12940-3 0 388 2 25544 51.6448 345.0233 0011009 89.8666 55.8399 15.73466308406264 CHANDRA 1 25867U 99040B 05360.87500000 .00000000 00000-0 00000+0 0 8712 2 25867 58.5908 99.9990 5675214 294.8215 358.2089 0.37796331 1219 FLOATING POTENTIAL PROBE 1 28 ...Continue Reading

Current TLEs <26 DEC 2005>

December 26th 2005 PDT

HST 1 20580U 90037B 05360.56721457 .00000535 00000-0 29012-4 0 5004 2 20580 28.4670 95.0786 0004026 156.2114 203.8661 14.99928211659159 ISS 1 25544U 98067A 05360.82419328 .00014604 00000-0 10696-3 0 295 2 25544 51.6447 353.5692 0010941 84.4557 339.8030 15.73394995406001 CHANDRA 1 25867U 99040B 05360.87500000 .00000000 00000-0 00000+0 0 8712 2 25867 58.5908 99.9990 5675214 294.8215 358.2089 0.37796331 1219 FLOATING POTENTIAL PROBE 1 28 ...Continue Reading

Current TLEs <24 DEC 2005>

December 24th 2005 PDT

On behave of Dave Cottle and his family and my family, we wish you and yours a merry Christmas and a safe and enjoyable New Year's, and all the best for 2006. HST 1 20580U 90037B 05357.57295794 .00000446 00000-0 22039-4 0 4980 2 20580 28.4665 114.5948 0003957 125.8203 234.2753 14.99925405658705 ISS 1 25544U 98067A 05358.49065691 .00014955 00000-0 10973-3 0 102 2 25544 51.6451 5.5393 0010877 75.5457 82.4477 15.73328870405639 CHANDRA 1 25867U ...Continue Reading

Current TLEs <22 DEC 2005>

December 22nd 2005 PDT

HST 1 20580U 90037B 05355.70986092 .00000390 00000-0 17644-4 0 4974 2 20580 28.4662 126.7369 0003901 106.4872 253.6145 14.99924103658423 ISS 1 25544U 98067A 05356.33666667 .00013246 00000-0 98044-4 0 9953 2 25544 51.6452 16.5849 0010652 67.7723 122.0829 15.73255560405297 CHANDRA 1 25867U 99040B 05355.58333333 .00000000 00000-0 00000+0 0 8694 2 25867 58.5513 100.1172 5674585 294.9324 357.7335 0.37791432 1215 FLOATING POTENTIAL PROBE 1 28 ...Continue Reading

Current TLEs <12 DEC 2005>

December 12th 2005 PDT

HST 1 20580U 90037B 05345.92856500 .00000509 00000-0 27032-4 0 4904 2 20580 28.4656 190.4886 0003436 358.2688 1.7872 14.99917554656950 ISS 1 25544U 98067A 05346.80167824 .00023436 00000-0 17161-3 0 9339 2 25544 51.6447 65.4803 0010119 33.0014 121.2613 15.73011378403793 CHANDRA 1 25867U 99040B 05345.00000000 .00000000 00000-0 00000+0 0 8658 2 25867 58.4606 100.2225 5688523 295.2782 356.8773 0.37803698 1210 FLOATING POTENTIAL PROBE 1 28 ...Continue Reading

Current TLEs <09 DEC 2005>

December 10th 2005 PDT

HST 1 20580U 90037B 05343.06736004 .00000664 00000-0 39229-4 0 4883 2 20580 28.4677 209.1467 0003476 323.7572 36.2776 14.99916523656523 ISS 1 25544U 98067A 05344.11819352 .00013554 00000-0 10186-3 0 9162 2 25544 51.6442 79.2345 0009577 24.3979 44.1173 15.72882125403374 CHANDRA 1 25867U 99040B 05342.37500000 .00000000 00000-0 00000+0 0 8649 2 25867 58.4247 100.3124 5686707 295.2638 359.5871 0.37799315 1211 FLOATING POTENTIAL PROBE 1 28 ...Continue Reading

Current TLEs <02 DEC 2005>

December 3rd 2005 PDT

HST 1 20580U 90037B 05336.21376240 .00000607 00000-0 34722-4 0 4839 2 20580 28.4684 253.8112 0003708 249.4308 110.5880 14.99909050655497 ISS 1 25544U 98067A 05337.17921296 .00013333 00000-0 10123-3 0 8683 2 25544 51.6426 114.7979 0008993 357.6464 355.7960 15.72662367402273 CHANDRA 1 25867U 99040B 05337.08333333 .00000000 00000-0 00000+0 0 8622 2 25867 58.3976 100.3499 5679175 295.4691 359.1325 0.37784640 1211 FLOATING POTENTIAL PROBE 1 28 ...Continue Reading

Current TLEs <28 NOV 2005>

November 28th 2005 PDT

HST 1 20580U 90037B 05331.22326382 .00000692 00000-0 41436-4 0 4796 2 20580 28.4685 286.3347 0004104 198.4203 161.6209 14.99904629654743 ISS 1 25544U 98067A 05332.29819150 .00012103 00000-0 92806-4 0 8409 2 25544 51.6443 139.8089 0008694 338.3863 83.3284 15.72541735401513 CHANDRA 1 25867U 99040B 05331.79166667 .00000000 00000-0 00000+0 0 8606 2 25867 58.3067 100.4295 5688234 295.6243 358.6017 0.37802297 1219 FLOATING POTENTIAL PROBE 1 28 ...Continue Reading
  • This mailing list is a public mailing list - anyone may join or leave, at any time.
  • This mailing list is announce-only.

International Space Station (ISS) / Hubble Space Telescope (HST) / Chandra X-Ray Observatory Orbital Data via EMAIL

Privacy Policy:

Private list